Miscellaneous Local Product
Issued by NWS North Platte, NE

Home | Current Version | Previous Version | Graphics & Text | Print | Product List | Glossary On
Versions: 1 2 3 4 5 6 7 8 9 10 11 12 13 14 15 16 17 18 19 20 21 22 23 24 25 26 27 28 29 30 31 32 33 34 35 36 37 38 39 40 41 42 43 44 45 46 47 48 49 50
000
AXUS43 KLBF 041010
MISLBF


WESTERN AND NORTH CENTRAL NEBRASKA HOURLY WEATHER ROUNDUP
NATIONAL WEATHER SERVICE NORTH PLATTE NE
500 AM CDT MON MAY 04 2015

***STATIONS NOT REPORTING VARIABLES SUCH AS SKY/WEATHER OR
PRESSURE ARE PROVIDED BY THE NEBRASKA DEPARTMENT OF
ROADS...RAWS...AND APRS NETWORKS...AND ARE NOT UNDER
NATIONAL WEATHER SERVICE QUALITY CONTROL***

...OBSERVATIONS IN AND NEAR THE EASTERN PANHANDLE OF NEBRASKA...

CITY           SKY/WX    TMP DP  RH WIND       PRES   REMARKS
PINE RIDGE     CLOUDY    50  32  50 CALM      30.12R
CHADRON        LGT RAIN  47  42  83 NE9       30.11R
ALLIANCE       LGT RAIN  48  41  76 E9        30.10S
SIDNEY         MOCLDY    50  38  63 E6        30.10S
$$

...OBSERVATIONS IN NORTH CENTRAL NEBRASKA...

CITY           SKY/WX    TMP DP  RH WIND       PRES   REMARKS
VALENTINE      PTCLDY    48  31  51 E3        30.11R
THEDFORD       MOCLDY    50  33  52 CALM      30.10S
AINSWORTH      PTCLDY    46  31  57 NE6       30.10R
O`NEILL        PTCLDY    52  35  52 N7        30.08R
ORD            CLOUDY    57  31  37 N10       30.03R
BROKEN BOW     CLOUDY    57  35  43 NE9       30.05R
$$

...OBSERVATIONS IN SOUTHWEST NEBRASKA AND FAR NORTHEAST COLORADO...

CITY           SKY/WX    TMP DP  RH WIND       PRES   REMARKS
WRAY           FAIR      53  39  58 N3        30.05S
IMPERIAL       CLOUDY    50  37  61 N9        30.04F
OGALLALA       CLOUDY    53  36  51 E10       30.08R
NORTH PLATTE   CLOUDY    53  38  56 NE3       30.07F
MCCOOK         CLOUDY    59  37  44 N18G28    29.97F
LEXINGTON      CLOUDY    57  39  51 NE10      30.03S
$$

...NORTH PLATTE AREA...

CITY           SKY/WX    TMP DP  RH WIND       PRES   REMARKS
AIRPORT        CLOUDY    53  38  56 NE3       30.07F
$$

...SOME WEATHER OBSERVATIONS FROM AROUND THE REGION...

CITY           SKY/WX    TMP DP  RH WIND       PRES   REMARKS
DENVER         CLOUDY    50  46  86 CALM      30.09F
LARAMIE        MOCLDY    43  39  86 SE21      30.08F
CHEYENNE       CLOUDY    45  39  79 SE15      30.10F
SCOTTSBLUFF    MOCLDY    51  38  60 E8        30.10S
RAPID CITY     LGT RAIN  50  34  54 S9        30.14R
PIERRE         CLOUDY    42  25  50 SE8       30.13R
WINNER         FAIR      47  26  44 N6        30.11S
SIOUX FALLS    PTCLDY    50  28  42 N10       30.08R
OMAHA          CLOUDY    59  52  77 N12       29.96R
GRAND ISLAND   CLOUDY    61  40  45 NE9       30.02R
KANSAS CITY    CLOUDY    65  55  70 CALM      29.98R
WICHITA        MOCLDY    60  53  77 S6        29.96R
HAYS           CLOUDY    63  46  55 N9G17     29.96R
LIBERAL        CLOUDY    61  54  77 SW6       29.95S
GOODLAND       LGT RAIN  53  45  74 N6        30.03R
$$



USA.gov is the U.S. government's official web portal to all federal, state and local government web resources and services.